Location: Bastelaar
(51.0950°N, 3.8602°E)
Time: 16:47:12
(UTC+00:00)

Cosmos 2278 Rocket - Pass Details

Date: 18 November 2025
Orbit: 841 x 843 km, 71.0° (Epoch: 12 December)

Event Time Altitude Azimuth Distance (km) Brightness Sun altitude
Rises 19:21:14 0° 252° (WSW) 3,394 6.2 -32.4°
Reaches altitude 10° 19:24:07 10° 266° (W) 2,462 5.4 -32.8°
Maximum altitude 19:28:43 25° 320° (NW) 1,644 4.1 -33.5°
Enters shadow 19:30:30 22° 348° (NNW) 1,792 4.0 -33.8°
